Location: Kershaw
(34.5481°N, 80.5823°W)
Time: 06:48:45
(UTC+00:00)

Tiros 1 despin weight - Pass Details

Date: 03 October 2022
Orbit: 590 x 637 km, 48.2° (Epoch: 28 November)

Event Time Altitude Azimuth Distance (km) Brightness Sun altitude
Rises 23:23:34 0° 297° (WNW) 2,861 ? -4.9°
Reaches altitude 10° 23:26:50 10° 322° (NW) 1,970 ? -5.6°
Maximum altitude 23:29:22 15° 356° (N) 1,697 ? -6.1°
Drops below altitude 10° 23:31:55 10° 30° (NNE) 1,988 ? -6.7°
Enters shadow 23:34:31 - 51° (NE) 2,682 ? -7.2°
Sets 23:35:14 0° 55° (NE) 2,906 - -7.4°
